Weather History for Henderson, KY

Change the Weather History Date:

Thursday, February 7, 2013

  Actual Average Record
Temperature  
Mean Temperature 48 °F -  
Max Temperature 64 °F 39 °F 66 °F (1944)
Min Temperature 33 °F 23 °F -2 °F (1984)
Degree Days  
Heating Degree Days 16    
Moisture  
Dew Point 36 °F    
Average Humidity 62    
Maximum Humidity 76    
Minimum Humidity 45    
Precipitation  
Precipitation 0.20 in - - ()
Sea Level Pressure  
Sea Level Pressure 29.97 in    
Wind  
Wind Speed 7 mph (SSE)    
Max Wind Speed 15 mph    
Max Gust Speed 21 mph    
Visibility 10 miles    
Events      
Averages and records for this station are not official NWS values.
T = Trace of Precipitation, MM = Missing Value Source: NWS Daily Summary

Daily Weather History Graph

Daily Weather History Graph

Search for Another Location

Airport:

Trip Planner

Search our weather history database for the weather conditions in past years. The results will help you decide how hot, cold, wet, or windy it might be!

Date:

Astronomy

Feb. 07, 2013 Rise Set
Actual Time 6:48 AM CST 5:21 PM CST
Civil Twilight 6:21 AM CST 5:48 PM CST
Nautical Twilight 5:50 AM CST 6:19 PM CST
Astronomical Twilight 5:19 AM CST 6:50 PM CST
Moon 4:26 AM CST (2/7) 2:46 PM CST (2/7)
Length of Visible Light 11h 26m
Length of Day
10h 32m
Waning Crescent, 9% of the Moon is Illuminated
Feb 7
Waning Crescent
Feb 10
New
Feb 17
First Quarter
Feb 25
Full
Mar 4
Last Quarter

Hourly Weather History & Observations

Time (CST) Temp. Windchill Dew Point Humidity Pressure Visibility Wind Dir Wind Speed Gust Speed Precip Events Conditions
12:35 AM 37.4 °F 32.1 °F 26.6 °F 65% 30.12 in 10.0 mi East 6.9 mph - N/A   Partly Cloudy
12:55 AM 37.4 °F 32.1 °F 26.6 °F 65% 30.11 in 10.0 mi East 6.9 mph - N/A   Partly Cloudy
1:35 AM 37.4 °F 32.1 °F 26.6 °F 65% 30.11 in 10.0 mi East 6.9 mph - N/A   Partly Cloudy
1:55 AM 37.4 °F 34.9 °F 26.6 °F 65% 30.12 in 10.0 mi East 3.5 mph - N/A   Scattered Clouds
2:15 AM 37.4 °F 32.1 °F 26.6 °F 65% 30.10 in 10.0 mi East 6.9 mph - N/A   Mostly Cloudy
2:36 AM 37.4 °F 32.1 °F 26.6 °F 65% 30.10 in 10.0 mi East 6.9 mph - N/A   Mostly Cloudy
2:55 AM 37.4 °F 33.8 °F 26.6 °F 65% 30.10 in 10.0 mi ESE 4.6 mph - N/A   Mostly Cloudy
3:15 AM 37.4 °F 34.9 °F 26.6 °F 65% 30.09 in 10.0 mi ESE 3.5 mph - N/A   Partly Cloudy
3:35 AM 37.4 °F 33.8 °F 26.6 °F 65% 30.09 in 10.0 mi East 4.6 mph - N/A   Mostly Cloudy
3:55 AM 37.4 °F 33.8 °F 26.6 °F 65% 30.09 in 10.0 mi ENE 4.6 mph - N/A   Scattered Clouds
4:15 AM 35.6 °F 29.9 °F 24.8 °F 65% 30.08 in 10.0 mi East 6.9 mph - N/A   Scattered Clouds
4:35 AM 35.6 °F 31.7 °F 24.8 °F 65% 30.07 in 10.0 mi East 4.6 mph - N/A   Scattered Clouds
4:55 AM 33.8 °F 29.6 °F 24.8 °F 70% 30.07 in 10.0 mi East 4.6 mph - N/A   Clear
5:15 AM 35.6 °F 31.7 °F 24.8 °F 65% 30.06 in 10.0 mi ENE 4.6 mph - N/A   Clear
5:35 AM 33.8 °F 30.8 °F 24.8 °F 70% 30.06 in 10.0 mi ESE 3.5 mph - N/A   Clear
5:56 AM 33.8 °F 30.8 °F 23.0 °F 65% 30.05 in 10.0 mi East 3.5 mph - N/A   Clear
6:15 AM 33.8 °F 30.8 °F 23.0 °F 65% 30.05 in 10.0 mi East 3.5 mph - N/A   Clear
6:35 AM 33.8 °F 29.6 °F 23.0 °F 65% 30.05 in 10.0 mi ENE 4.6 mph - N/A   Clear
6:55 AM 33.8 °F 28.6 °F 24.8 °F 70% 30.05 in 9.0 mi ENE 5.8 mph - N/A   Clear
7:15 AM 33.8 °F 29.6 °F 24.8 °F 70% 30.06 in 9.0 mi ENE 4.6 mph - N/A   Clear
7:35 AM 33.8 °F 28.6 °F 24.8 °F 70% 30.05 in 8.0 mi East 5.8 mph - N/A   Clear
7:55 AM 37.4 °F 32.1 °F 26.6 °F 65% 30.05 in 9.0 mi East 6.9 mph - N/A   Clear
8:15 AM 39.2 °F 33.6 °F 28.4 °F 65% 30.04 in 10.0 mi East 8.1 mph - N/A   Clear
8:35 AM 41.0 °F 36.4 °F 28.4 °F 61% 30.04 in 10.0 mi East 6.9 mph - N/A   Clear
8:55 AM 42.8 °F 38.6 °F 28.4 °F 57% 30.04 in 10.0 mi ESE 6.9 mph - N/A   Clear
9:15 AM 44.6 °F 40.2 °F 30.2 °F 57% 30.04 in 10.0 mi SE 8.1 mph - N/A   Clear
9:35 AM 46.4 °F 42.9 °F 32.0 °F 57% 30.03 in 10.0 mi SE 6.9 mph - N/A   Clear
9:55 AM 48.2 °F - 33.8 °F 58% 30.02 in 10.0 mi SE 5.8 mph - N/A   Clear
10:15 AM 51.8 °F - 33.8 °F 50% 30.01 in 10.0 mi SE 5.8 mph - N/A   Clear
10:35 AM 53.6 °F - 35.6 °F 51% 30.01 in 10.0 mi SE 5.8 mph - N/A   Clear
10:55 AM 55.4 °F - 37.4 °F 51% 29.99 in 10.0 mi South 8.1 mph - N/A   Clear
11:15 AM 57.2 °F - 39.2 °F 51% 29.98 in 10.0 mi South 12.7 mph 16.1 mph N/A   Clear
12:35 PM 62.6 °F - 42.8 °F 48% 29.93 in 10.0 mi South 13.8 mph - N/A   Clear
12:55 PM 62.6 °F - 42.8 °F 48% 29.92 in 10.0 mi SSW 11.5 mph - N/A   Clear
1:15 PM 64.4 °F - 42.8 °F 45% 29.91 in 10.0 mi SSW 10.4 mph - N/A   Clear
1:35 PM 64.4 °F - 44.6 °F 49% 29.90 in 10.0 mi South 10.4 mph - N/A   Clear
1:55 PM 64.4 °F - 44.6 °F 49% 29.89 in 10.0 mi South 12.7 mph 16.1 mph N/A   Clear
2:15 PM 64.4 °F - 44.6 °F 49% 29.89 in 10.0 mi SSW 10.4 mph - N/A   Clear
2:35 PM 64.4 °F - 46.4 °F 52% 29.89 in 10.0 mi SW 13.8 mph - N/A   Scattered Clouds
3:15 PM 64.4 °F - 46.4 °F 52% 29.88 in 10.0 mi SSW 12.7 mph 18.4 mph N/A   Partly Cloudy
3:35 PM 64.4 °F - 46.4 °F 52% 29.87 in 10.0 mi SSW 13.8 mph - N/A   Partly Cloudy
4:15 PM 62.6 °F - 46.4 °F 55% 29.85 in 10.0 mi South 6.9 mph - N/A   Partly Cloudy
4:35 PM 62.6 °F - 44.6 °F 52% 29.85 in 10.0 mi SSW 6.9 mph - N/A   Clear
4:55 PM 59.0 °F - 42.8 °F 55% 29.86 in 10.0 mi SSW 6.9 mph - N/A   Clear
5:35 PM 55.4 °F - 41.0 °F 58% 29.86 in 10.0 mi SSW 4.6 mph - N/A   Mostly Cloudy
5:55 PM 53.6 °F - 41.0 °F 62% 29.86 in 10.0 mi SW 3.5 mph - N/A   Overcast
6:15 PM 53.6 °F - 41.0 °F 62% 29.86 in 10.0 mi SSW 5.8 mph - N/A   Overcast
6:35 PM 53.6 °F - 42.8 °F 67% 29.86 in 10.0 mi SSW 6.9 mph - N/A   Mostly Cloudy
6:55 PM 53.6 °F - 41.0 °F 62% 29.86 in 10.0 mi SSW 5.8 mph - N/A   Mostly Cloudy
7:15 PM 53.6 °F - 42.8 °F 67% 29.86 in 10.0 mi SSW 8.1 mph - N/A   Overcast
7:35 PM 55.4 °F - 42.8 °F 63% 29.85 in 10.0 mi South 6.9 mph - N/A   Overcast
7:55 PM 53.6 °F - 42.8 °F 67% 29.85 in 10.0 mi SSW 8.1 mph - N/A   Overcast
8:15 PM 53.6 °F - 42.8 °F 67% 29.85 in 10.0 mi SW 8.1 mph - N/A   Overcast
8:35 PM 53.6 °F - 42.8 °F 67% 29.86 in 9.0 mi West 8.1 mph - 0.03 in   Overcast
8:55 PM 53.6 °F - 44.6 °F 72% 29.86 in 10.0 mi West 6.9 mph - 0.04 in   Overcast
9:15 PM 53.6 °F - 44.6 °F 72% 29.87 in 10.0 mi West 8.1 mph - 0.02 in   Overcast
9:35 PM 53.6 °F - 44.6 °F 72% 29.87 in 8.0 mi West 8.1 mph - 0.08 in   Overcast
9:55 PM 53.6 °F - 44.6 °F 72% 29.87 in 10.0 mi West 5.8 mph - 0.10 in   Overcast
10:16 PM 51.8 °F - 44.6 °F 76% 29.88 in 8.0 mi WNW 11.5 mph - 0.01 in   Overcast
10:35 PM 51.8 °F - 42.8 °F 71% 29.88 in 10.0 mi NW 10.4 mph - 0.06 in   Overcast
10:55 PM 50.0 °F - 42.8 °F 76% 29.88 in 10.0 mi WNW 10.4 mph - 0.06 in   Overcast
11:15 PM 48.2 °F - 41.0 °F 76% 29.89 in 10.0 mi WNW 11.5 mph - N/A   Overcast
11:35 PM 48.2 °F - 41.0 °F 76% 29.90 in 10.0 mi NW 15.0 mph 20.7 mph N/A   Overcast
11:55 PM 46.4 °F 40.4 °F 39.2 °F 76% 29.92 in 10.0 mi NNW 13.8 mph - N/A   Overcast